| time (UTC) | temp F | wind direction | speed MPH | gust MPH | rain 1hr in | rain 24hr in | rain mn in | humidity % | barometer mb |
| 20260508080035 | 46 | 0 | 0.0 | 0.0 | 0.00 | 0.19 | 0.00 | 93 | 1016.5 |
| 20260508074542 | 46 | 0 | 0.0 | 0.0 | 0.00 | 0.21 | 0.00 | 93 | 1016.6 |
| 20260508073034 | 46 | 0 | 0.0 | 0.0 | 0.00 | 0.21 | 0.00 | 93 | 1016.5 |
| 20260508071549 | 47 | 0 | 0.0 | 0.0 | 0.00 | 0.21 | 0.00 | 93 | 1016.3 |
| 20260508070036 | 46 | 0 | 0.0 | 0.0 | 0.00 | 0.21 | 0.00 | 94 | 1016.3 |
| 20260508064538 | 46 | 0 | 0.0 | 0.0 | 0.00 | 0.27 | 0.00 | 93 | 1016.1 |
| 20260508063047 | 46 | 0 | 0.0 | 0.0 | 0.00 | 0.27 | 0.00 | 93 | 1016.0 |
| 20260508061541 | 46 | 0 | 0.0 | 0.0 | 0.00 | 0.27 | 0.00 | 93 | 1016.2 |
| 20260508060037 | 46 | 0 | 0.0 | 0.0 | 0.00 | 0.27 | 0.00 | 92 | 1016.2 |
| 20260508054535 | 47 | 0 | 0.0 | 0.0 | 0.00 | 0.28 | 0.00 | 92 | 1016.1 |
| 20260508053058 | 48 | 0 | 0.0 | 0.0 | 0.00 | 0.28 | 0.00 | 90 | 1016.0 |
| 20260508051535 | 48 | 0 | 0.0 | 0.0 | 0.00 | 0.28 | 0.00 | 90 | 1015.8 |
| 20260508050041 | 48 | 0 | 0.0 | 0.0 | 0.00 | 0.28 | 0.00 | 91 | 1015.8 |
| 20260508044540 | 48 | 0 | 0.0 | 0.0 | 0.00 | 0.29 | 0.00 | 92 | 1015.8 |
| 20260508043037 | 48 | 0 | 0.0 | 0.0 | 0.00 | 0.29 | 0.00 | 92 | 1015.5 |
| 20260508041558 | 49 | 0 | 0.0 | 0.0 | 0.00 | 0.29 | 0.00 | 92 | 1015.4 |
| 20260508040043 | 49 | 0 | 0.0 | 0.0 | 0.00 | 0.29 | 0.00 | 91 | 1015.4 |
| 20260508034541 | 50 | 0 | 0.0 | 0.0 | 0.00 | 0.31 | 0.29 | 90 | 1015.3 |
| 20260508033041 | 50 | 0 | 0.0 | 0.0 | 0.00 | 0.31 | 0.29 | 91 | 1015.3 |
| 20260508031540 | 50 | 0 | 0.0 | 0.0 | 0.00 | 0.31 | 0.29 | 92 | 1015.2 |
| 20260508030038 | 50 | 0 | 0.0 | 0.0 | 0.00 | 0.31 | 0.29 | 93 | 1015.0 |
| 20260508024538 | 50 | 0 | 0.0 | 0.0 | 0.00 | 0.34 | 0.29 | 93 | 1014.9 |
| 20260508023035 | 51 | 0 | 0.0 | 0.0 | 0.00 | 0.34 | 0.29 | 94 | 1014.9 |
| 20260508021541 | 51 | 0 | 0.0 | 0.0 | 0.00 | 0.34 | 0.29 | 94 | 1014.6 |
| 20260508020045 | 51 | 0 | 0.0 | 0.0 | 0.00 | 0.34 | 0.29 | 94 | 1014.3 |
| 20260508014540 | 52 | 0 | 0.0 | 0.0 | 0.00 | 0.35 | 0.29 | 94 | 1014.1 |
| 20260508013038 | 53 | 0 | 0.0 | 1.0 | 0.00 | 0.35 | 0.29 | 94 | 1013.8 |
| 20260508011540 | 53 | 0 | 0.0 | 0.0 | 0.00 | 0.35 | 0.29 | 94 | 1013.3 |
| 20260508010034 | 53 | 0 | 0.0 | 0.0 | 0.00 | 0.35 | 0.29 | 93 | 1013.2 |
| 20260508004534 | 54 | 0 | 0.0 | 0.0 | 0.00 | 0.38 | 0.29 | 93 | 1013.3 |
| 20260508003036 | 54 | 0 | 0.0 | 2.0 | 0.00 | 0.38 | 0.29 | 92 | 1013.0 |
| 20260508001542 | 55 | 0 | 0.0 | 0.0 | 0.00 | 0.38 | 0.29 | 92 | 1013.2 |
| 20260508000036 | 56 | 0 | 0.0 | 0.0 | 0.00 | 0.38 | 0.29 | 90 | 1012.9 |
| 20260507234543 | 57 | 0 | 0.0 | 0.0 | 0.00 | 0.38 | 0.29 | 89 | 1012.9 |
| 20260507233056 | 57 | 0 | 0.0 | 2.0 | 0.00 | 0.38 | 0.29 | 89 | 1012.7 |
| 20260507231541 | 57 | 46 | 0.0 | 2.0 | 0.00 | 0.38 | 0.29 | 88 | 1012.4 |
| 20260507230043 | 57 | 37 | 0.0 | 3.0 | 0.00 | 0.38 | 0.29 | 87 | 1012.2 |
| 20260507224548 | 58 | 18 | 1.0 | 6.0 | 0.00 | 0.38 | 0.29 | 87 | 1011.7 |
| 20260507223035 | 57 | 29 | 1.0 | 5.0 | 0.00 | 0.38 | 0.29 | 89 | 1011.6 |
| 20260507221544 | 57 | 30 | 1.0 | 4.0 | 0.00 | 0.38 | 0.29 | 88 | 1011.7 |
| 20260507220041 | 58 | 76 | 0.0 | 5.0 | 0.00 | 0.38 | 0.29 | 88 | 1011.6 |
| 20260507214537 | 57 | 28 | 2.0 | 7.0 | 0.00 | 0.38 | 0.29 | 88 | 1011.3 |
| 20260507213040 | 58 | 17 | 3.0 | 12.0 | 0.00 | 0.38 | 0.29 | 88 | 1011.3 |
| 20260507211537 | 57 | 33 | 2.0 | 12.0 | 0.00 | 0.38 | 0.29 | 90 | 1011.2 |
| 20260507210049 | 57 | 31 | 2.0 | 9.0 | 0.00 | 0.38 | 0.29 | 90 | 1011.2 |
| 20260507204535 | 57 | 360 | 1.0 | 6.0 | 0.00 | 0.38 | 0.29 | 91 | 1011.1 |
| 20260507203044 | 57 | 34 | 3.0 | 10.0 | 0.04 | 0.38 | 0.29 | 92 | 1011.0 |
| 20260507201540 | 57 | 51 | 3.0 | 15.0 | 0.04 | 0.38 | 0.29 | 92 | 1011.2 |
| 20260507200038 | 57 | 5 | 1.0 | 6.0 | 0.05 | 0.38 | 0.29 | 93 | 1011.1 |
| 20260507194607 | 57 | 13 | 2.0 | 8.0 | 0.05 | 0.38 | 0.29 | 92 | 1011.7 |
| 20260507193038 | 58 | 352 | 1.0 | 5.0 | 0.01 | 0.34 | 0.25 | 91 | 1011.4 |
| 20260507191541 | 59 | 14 | 2.0 | 11.0 | 0.01 | 0.34 | 0.25 | 89 | 1011.0 |
| 20260507190049 | 59 | 5 | 1.0 | 13.0 | 0.00 | 0.33 | 0.24 | 88 | 1010.9 |
| 20260507184540 | 60 | 75 | 1.0 | 10.0 | 0.00 | 0.33 | 0.24 | 88 | 1011.2 |
| 20260507183044 | 60 | 31 | 2.0 | 8.0 | 0.00 | 0.33 | 0.24 | 86 | 1011.0 |
| 20260507181537 | 61 | 60 | 2.0 | 7.0 | 0.00 | 0.33 | 0.24 | 87 | 1011.1 |
| 20260507180039 | 62 | 42 | 2.0 | 9.0 | 0.00 | 0.33 | 0.24 | 86 | 1011.0 |
| 20260507174553 | 63 | 5 | 3.0 | 8.0 | 0.00 | 0.33 | 0.24 | 84 | 1010.7 |
| 20260507173103 | 64 | 48 | 2.0 | 8.0 | 0.00 | 0.33 | 0.24 | 84 | 1010.9 |
| 20260507171545 | 64 | 13 | 2.0 | 10.0 | 0.00 | 0.33 | 0.24 | 84 | 1011.0 |
| 20260507170039 | 63 | 70 | 1.0 | 9.0 | 0.00 | 0.33 | 0.24 | 90 | 1011.1 |
| 20260507164547 | 64 | 57 | 2.0 | 6.0 | 0.00 | 0.33 | 0.24 | 89 | 1011.1 |
| 20260507163042 | 63 | 32 | 2.0 | 8.0 | 0.00 | 0.33 | 0.24 | 92 | 1010.9 |
| 20260507161556 | 63 | 16 | 2.0 | 9.0 | 0.00 | 0.33 | 0.24 | 91 | 1010.8 |
| 20260507160041 | 66 | 93 | 1.0 | 2.0 | 0.00 | 0.33 | 0.24 | 90 | 1010.8 |
| 20260507154542 | 66 | 305 | 0.0 | 2.0 | 0.00 | 0.33 | 0.24 | 92 | 1011.0 |
| 20260507153040 | 65 | 175 | 0.0 | 2.0 | 0.00 | 0.33 | 0.24 | 95 | 1011.0 |
| 20260507151536 | 64 | 186 | 0.0 | 2.0 | 0.00 | 0.33 | 0.24 | 95 | 1011.5 |
| 20260507150035 | 64 | 242 | 0.0 | 2.0 | 0.00 | 0.33 | 0.24 | 95 | 1011.7 |
| 20260507144546 | 64 | 0 | 0.0 | 3.0 | 0.00 | 0.33 | 0.24 | 95 | 1011.7 |
| 20260507143043 | 63 | 0 | 0.0 | 2.0 | 0.00 | 0.33 | 0.24 | 95 | 1011.2 |
| 20260507141551 | 63 | 0 | 0.0 | 2.0 | 0.00 | 0.33 | 0.24 | 96 | 1010.9 |
| 20260507140039 | 63 | 0 | 0.0 | 2.0 | 0.02 | 0.33 | 0.24 | 96 | 1011.1 |
| 20260507134536 | 62 | 0 | 0.0 | 2.0 | 0.03 | 0.33 | 0.24 | 96 | 1011.4 |
| 20260507133037 | 62 | 302 | 0.0 | 2.0 | 0.05 | 0.33 | 0.24 | 96 | 1011.2 |
| 20260507131541 | 62 | 0 | 0.0 | 2.0 | 0.09 | 0.33 | 0.24 | 96 | 1011.2 |
| 20260507130040 | 62 | 173 | 0.0 | 1.0 | 0.08 | 0.31 | 0.22 | 96 | 1011.1 |
| 20260507124540 | 62 | 0 | 0.0 | 2.0 | 0.09 | 0.30 | 0.21 | 96 | 1011.8 |
| 20260507123042 | 62 | 0 | 0.0 | 2.0 | 0.08 | 0.28 | 0.19 | 95 | 1012.5 |
| 20260507121541 | 62 | 0 | 0.0 | 2.0 | 0.05 | 0.24 | 0.15 | 95 | 1012.1 |
| 20260507120045 | 62 | 188 | 0.0 | 2.0 | 0.04 | 0.23 | 0.14 | 95 | 1011.9 |
| 20260507114543 | 62 | 0 | 0.0 | 0.0 | 0.02 | 0.21 | 0.12 | 95 | 1012.3 |
| 20260507113047 | 62 | 0 | 0.0 | 2.0 | 0.01 | 0.20 | 0.11 | 95 | 1011.9 |
| 20260507111541 | 61 | 0 | 0.0 | 0.0 | 0.00 | 0.19 | 0.10 | 95 | 1011.7 |
| 20260507110040 | 61 | 0 | 0.0 | 2.0 | 0.00 | 0.19 | 0.10 | 95 | 1011.3 |
| 20260507104536 | 61 | 0 | 0.0 | 2.0 | 0.00 | 0.19 | 0.10 | 95 | 1011.5 |
| 20260507103036 | 61 | 0 | 0.0 | 2.0 | 0.00 | 0.19 | 0.10 | 95 | 1011.3 |
| 20260507101542 | 61 | 213 | 0.0 | 2.0 | 0.00 | 0.19 | 0.10 | 95 | 1011.1 |
| 20260507100043 | 61 | 175 | 0.0 | 2.0 | 0.00 | 0.19 | 0.10 | 95 | 1011.4 |
| 20260507094544 | 61 | 0 | 0.0 | 3.0 | 0.00 | 0.19 | 0.10 | 95 | 1011.4 |
| 20260507093037 | 61 | 188 | 0.0 | 2.0 | 0.00 | 0.19 | 0.10 | 95 | 1011.5 |
| 20260507091536 | 62 | 0 | 0.0 | 0.0 | 0.00 | 0.19 | 0.10 | 95 | 1011.2 |
| 20260507090036 | 62 | 190 | 0.0 | 2.0 | 0.00 | 0.19 | 0.10 | 95 | 1011.4 |
| 20260507084534 | 62 | 0 | 0.0 | 2.0 | 0.00 | 0.19 | 0.10 | 95 | 1011.8 |
| 20260507083040 | 62 | 285 | 0.0 | 2.0 | 0.00 | 0.19 | 0.10 | 95 | 1011.5 |
| 20260507081545 | 62 | 0 | 0.0 | 2.0 | 0.01 | 0.19 | 0.10 | 95 | 1011.4 |